This is the latest recevied weather packets stored in our database for station/object YD2CLX-13. If no packets are shown the sender has not sent any weather packets the latest 10 day(s).
| Time | Temp. | Humidity | Pressure | Rain* | Wind** | Luminosity | Snow |
|---|---|---|---|---|---|---|---|
| 1777802249 | 11.11° C | 71% | 796.7 hPa | 0 mm | - | - | - |
| 1777801642 | 11.11° C | 71% | 796.8 hPa | 0 mm | - | - | - |
| 1777801035 | 11.11° C | 71% | 796.7 hPa | 0 mm | - | - | - |
| 1777800427 | 11.11° C | 71% | 796.4 hPa | 0 mm | - | - | - |
| 1777799819 | 11.11° C | 70% | 796.5 hPa | 0 mm | - | - | - |
| 1777798603 | 11.67° C | 71% | 796.1 hPa | 0 mm | - | - | - |
| 1777797995 | 11.67° C | 70% | 796.1 hPa | 0 mm | - | - | - |
| 1777797384 | 11.11° C | 70% | 796.1 hPa | 0 mm | - | - | - |
| 1777796775 | 11.11° C | 70% | 796 hPa | 0 mm | - | - | - |
| 1777796168 | 11.67° C | 70% | 796 hPa | 0 mm | - | - | - |
| 1777795561 | 11.67° C | 70% | 796.1 hPa | 0 mm | - | - | - |
| 1777794951 | 11.67° C | 70% | 796.1 hPa | 0 mm | - | - | - |
| 1777794343 | 11.67° C | 70% | 796.1 hPa | 0 mm | - | - | - |
| 1777793735 | 11.67° C | 70% | 796 hPa | 0 mm | - | - | - |
| 1777793127 | 11.67° C | 70% | 796.1 hPa | 0 mm | - | - | - |
| 1777792519 | 11.67° C | 70% | 796.1 hPa | 0 mm | - | - | - |
| 1777790692 | 12.22° C | 69% | 796.4 hPa | 0 mm | - | - | - |
| 1777790083 | 12.22° C | 69% | 796.6 hPa | 0 mm | - | - | - |
| 1777789475 | 12.22° C | 69% | 796.8 hPa | 0 mm | - | - | - |
| 1777788865 | 12.22° C | 69% | 797 hPa | 0 mm | - | - | - |
| 1777788257 | 12.78° C | 69% | 797 hPa | 0 mm | - | - | - |
| 1777787649 | 12.78° C | 69% | 797.2 hPa | 0 mm | - | - | - |
| 1777787039 | 12.22° C | 69% | 797.3 hPa | 0 mm | - | - | - |
| 1777786432 | 12.78° C | 69% | 797.3 hPa | 0 mm | - | - | - |
| 1777785822 | 12.78° C | 69% | 797.3 hPa | 0 mm | - | - | - |
* Rain latest hour (hover to see other rain measurements)
** Current wind speed in m/s (hover to see current wind gust speed)